Hourly Data Report for October 30, 2014

All times are specified in Local Standard Time (LST). Add 1 hour to adjust for Daylight Saving Time where and when it is observed.

BAKER LAKE A
NUNAVUT

64°17'56.000" N
96°04'40.000" W
18.60 m
2300503
71926
YBK

Download Data

Hourly Data (October 2014)
Hourly Data Report for October 30, 2014
Temp Definition
°C
Dew Point Temp Definition
°C
Rel Hum Definition
%
Wind Dir Definition
10's deg

Wind Spd Definition
km/h
Visibility Definition
km
Stn Press Definition
kPa
Hmdx Definition


Wind Chill Definition


Weather Definition


TIME
00:00 Legend Double Dagger -17.2 -20.2 78 33 23 24.1 102.21   -28 Blowing Snow
01:00 Legend Double Dagger -17.2 -20.2 78 30 21 24.1 102.30   -27 LegendNANA
02:00 Legend Double Dagger -17.4 -20.4 78 32 24 24.1 102.34   -28 Blowing Snow
03:00 Legend Double Dagger -17.7 -20.8 77 30 20 24.1 102.42   -28 Mainly Clear
04:00 Legend Double Dagger -17.2 -20.0 79 30 16 24.1 102.45   -26 LegendNANA
05:00 Legend Double Dagger -15.6 -18.3 80 31 30 24.1 102.48   -27 Blowing Snow
06:00 Legend Double Dagger -16.8 -19.6 79 16 3 24.1 102.52   -19 Mainly Clear
07:00 Legend Double Dagger -17.2 -19.4 83 26 4 32.2 102.54   -20 LegendNANA
08:00 Legend Double Dagger -19.4 -21.9 81 36 2 32.2 102.53   -21 LegendNANA
09:00 Legend Double Dagger -18.3 -20.8 81 36 1 32.2 102.52   -19 Mainly Clear
10:00 Legend Double Dagger -16.0 -18.6 81 28 10 32.2 102.49   -22 LegendNANA
11:00 Legend Double Dagger -14.9 -18.1 77 24 10 32.2 102.46   -21 LegendNANA
12:00 Legend Double Dagger -14.5 -17.4 79 24 15 32.2 102.44   -22 Mainly Clear
13:00 Legend Double Dagger -13.2 -16.1 79 24 19 32.2 102.39   -22 LegendNANA
14:00 Legend Double Dagger -12.6 -15.1 82 26 16 32.2 102.37   -20 LegendNANA
15:00 Legend Double Dagger -12.6 -15.2 81 26 16 32.2 102.34   -20 Mostly Cloudy
16:00 Legend Double Dagger -13.3 -15.6 83 26 20 32.2 102.31   -22 LegendNANA
17:00 Legend Double Dagger -14.0 -16.4 82 27 25 32.2 102.28   -24 LegendNANA
18:00 Legend Double Dagger -14.5 -16.9 82 28 28 24.1 102.22   -25 Mostly Cloudy
19:00 Legend Double Dagger -15.4 -17.2 86 30 18 24.1 102.21   -24 LegendNANA
20:00 Legend Double Dagger -15.3 -17.4 84 27 8 24.1 102.16   -21 LegendNANA
21:00 Legend Double Dagger -15.5 -17.1 88 26 3 24.1 102.12   -18 Snow
22:00 Legend Double Dagger -15.0 -16.4 89 36 2 24.1 102.07   -16 Snow
23:00 Legend Double Dagger -15.0 -16.6 88 24 3 1.2 102.00   -17 Snow,Fog

Notes on Data Quality.

Legend

  • E = Estimated
  • M = Missing
  • NA = Not Available
  • ‡ = Partner data that is not subject to review by the National Climate Archives
Date modified: